266 
ASUS46 KSEW 232010
RWRWA 

WASHINGTON REGIONAL WEATHER ROUNDUP
NATIONAL WEATHER SERVICE SEATTLE WA
100 PM PDT WED APR 23 2014

NOTE:"FAIR" INDICATES FEW OR NO CLOUDS BELOW 12,000 FEET WITH NO 
SIGNIFICANT WEATHER AND/OR OBSTRUCTIONS TO VISIBILITY.

WAZ505-507>509-232100-
SEATTLE, TACOMA, EVERETT, AND VICINITY
  
CITY           SKY/WX    TMP DP  RH WIND       PRES   REMARKS
EVERETT        PTSUNNY   52  40  63 S21       29.88S                  
BOEING FIELD   CLOUDY    53  41  63 S12       29.90F                  
RENTON         CLOUDY    52  41  66 S8        29.90S                  
SEATAC AIRPORT PTSUNNY   51  41  68 SW9       29.91S                  
JBLM-MCCHORD   LGT RAIN  50  46  87 SE9       29.91S                  
PUYALLUP       LGT RAIN  48  43  81 SW5       29.91S                  
JBLM-FT LEWIS  DRIZZLE   48  44  84 SE7       29.90F                  
TACOMA NARROWS LGT RAIN  48  41  76 S13       29.91S                  
$$
 
WAZ001-503-506-510-514-515-232100-
NORTH INTERIOR
  
CITY           SKY/WX    TMP DP  RH WIND       PRES   REMARKS
BELLINGHAM     MOSUNNY   54  39  57 S13G21    29.86F                  
FRIDAY HARBOR  PTSUNNY   53  41  63 E8        29.88S                  
EASTSOUND      MOSUNNY   52  41  66 S8        29.86R                  
PORT ANGELES   MOSUNNY   51  40  65 NE6       29.85F                  
NAS WHIDBEY    PTSUNNY   58  41  53 SE16      29.87F                  
BURLINGTON     CLOUDY    54  41  62 S8        29.89S                  
$$
 
WAZ020-022-039-040-504-511-512-232100-
SOUTHWEST INTERIOR
  
CITY           SKY/WX    TMP DP  RH WIND       PRES   REMARKS
SHELTON        LGT RAIN  48  45  89 SE8       29.87F                  
OLYMPIA        CLOUDY    49  45  86 S7        29.90F                  
CHEHALIS       LGT RAIN  46  45  93 SW5       29.92S                  
KELSO          CLOUDY    52  46  82 S13G18    29.92F                  
VANCOUVER      CLOUDY    54  44  69 S10       29.92F                  
SCAPPOOSE, OR  CLOUDY    53  48  83 S9        29.90F                  
PORTLAND, OR   CLOUDY    54  45  71 S20G32    29.92F                  
$$
 
WAZ021-516-517-232100-
WASHINGTON COAST
  
CITY           SKY/WX    TMP DP  RH WIND       PRES   REMARKS
FORKS          PTSUNNY   54  43  66 S10       29.83F HAZE             
HOQUIAM        LGT RAIN  49  47  93 E7        29.86F FOG              
ASTORIA, OR    LGT RAIN  53  49  86 SW14G22   29.87S                  
$$
 
WAZ019-023-024-040-518-519-232100-
CASCADE MOUNTAINS AND COLUMBIA GORGE
  
CITY           SKY/WX    TMP DP  RH WIND       PRES   REMARKS
STAMPEDE PASS  NOT AVBL                                               
TROUTDALE, OR  CLOUDY    56  44  64 SW15G24   29.92S                  
THE DALLES, OR CLOUDY    54  41  61 CALM      29.92F                  
$$

WAZ026-027-041>044-520-521-232100-
EAST SLOPES
  
CITY           SKY/WX    TMP DP  RH WIND       PRES   REMARKS
OMAK           SUNNY     57  28  33 VRB6      29.78F                  
WENATCHEE      CLOUDY    57  28  33 N6        29.82F                  
ELLENSBURG     LGT RAIN  46  38  73 N8        29.87S                  
YAKIMA         CLOUDY    55  36  48 S13       29.87F                  
$$

WAZ028-034-035-232100-
COLUMBIA BASIN
  
CITY           SKY/WX    TMP DP  RH WIND       PRES   REMARKS
EPHRATA        PTSUNNY   56  32  40 SW21G30   29.84S                  
MOSES LAKE     PTSUNNY   56  32  40 SW18G24   29.86S                  
HANFORD        NOT AVBL                                               
PASCO          CLOUDY    56  37  49 SW17      29.94R                  
HERMISTON, OR  LGT RAIN  52  41  66 N7        29.93F                  
$$

WAZ036>038-232100-
NORTHEAST WASHINGTON
  
CITY           SKY/WX    TMP DP  RH WIND       PRES   REMARKS
SPOKANE GEIGER PTSUNNY   50  29  44 SW17      29.81F                  
SPOKANE FELTS  PTSUNNY   51  30  44 SW17G23   29.83F                  
FAIRCHILD AFB  PTSUNNY   51  31  45 SW23G30   29.82S                  
COEURDALENE,ID CLOUDY    46  39  76 CALM      29.83F                  
DEER PARK      PTSUNNY   47  34  60 SW5       29.81F                  
$$

WAZ029>033-232100-
SOUTHEAST WASHINGTON
  
CITY           SKY/WX    TMP DP  RH WIND       PRES   REMARKS
PULLMAN        LGT RAIN  44  36  73 W13       29.90S                  
LEWISTON, ID   CLOUDY    56  28  34 VRB6      29.88F                  
WALLA WALLA    LGT RAIN  54  39  57 SW22G30   29.94R                  
PENDLETON, OR  LGT RAIN  50  37  61 W6        29.92F                  
$$